Regional Weather Roundup
Issued by NWS Wakefield, VA

Home | Current Version | Previous Version | Text Only | Print | Product List | Glossary Off
Versions: 1 2 3 4 5 6 7 8 9 10 11 12 13 14 15 16 17 18 19 20 21 22 23 24 25 26 27 28 29 30 31 32 33 34 35 36 37 38 39 40 41 42 43 44 45 46 47 48 49 50

000
ASUS41 KAKQ 210415
RWRAKQ

REGIONAL WEATHER ROUNDUP
NATIONAL WEATHER SERVICE WAKEFIELD VA
1100 PM EST MON NOV 20 2017

Note: "fair" indicates few or no clouds below 12,000 feet with no
significant weather and/or obstructions to visibility. * = Denotes
station may not report precipitation (e.g., rain,snow,etc.),
thunder or fog.

VAZ042-051-052>054-056-210500-
NORTHERN VIRGINIA

CITY           SKY/WX    TMP DP  RH WIND       PRES   REMARKS
WASH NATIONAL  CLOUDY    43  28  55 SW5       30.19S
DULLES         CLOUDY    36  26  67 S8        30.17S
FORT BELVOIR   CLOUDY    32  27  80 CALM      30.19S
QUANTICO       PTCLDY    44  30  57 VRB6      30.21
FREDERICKSBRG* CLOUDY    38  29  70 CALM      30.19F
STAFFORD*      CLOUDY    34  26  71 CALM      30.24S
WARRENTON      NOT AVBL
CULPEPER*      CLOUDY    36  24  62 SW5       30.19S
MANASSAS*      CLOUDY    32  26  78 CALM      30.18S
LEESBURG*      CLOUDY    34  30  86 CALM      30.18R
WINCHESTER     CLOUDY    37  23  56 SW3       30.13S
FRONT ROYAL*   CLOUDY    37  23  56 S3        30.13S
LURAY*         CLOUDY    41  23  48 SW7       30.15F
$$

VAZ048-049-060>072-079>083-210500-
CENTRAL AND SOUTH CENTRAL VIRGINIA

CITY           SKY/WX    TMP DP  RH WIND       PRES   REMARKS
RICHMOND       CLOUDY    35  29  78 S6        30.23R
CHESTERFIELD*  NOT AVBL
PETERSBURG*    CLOUDY   N/A N/A N/A CALM      30.24S
HANOVER        CLOUDY    36  31  82 CALM      30.23S
TAPPAHANNOCK*    N/A    N/A N/A N/A MISG        N/A
QUINTON*       FAIR      34  30  86 CALM      30.23S
CHARLOTTSVILLE CLOUDY    40  24  53 SW3       30.18S
GORDONSVILLE*  CLOUDY    32  27  84 CALM      30.18S
ORANGE*        CLOUDY    32  27  80 CALM      30.18F
LOUISA*        CLOUDY    39  24  54 S5        30.23S
BUMPASS*       FAIR      33  28  82 CALM      30.20S
FARMVILLE*     CLOUDY    34  31  90 CALM      30.21R
CREWE*         FAIR      32  32 100 CALM      30.22R
FORT PICKETT*  NOT AVBL
CHASE CITY*    FAIR      34  30  87 SE3       30.22S
CLARKSVILLE*   FAIR      32  32 100 CALM      30.23S
SOUTH HILL*    CLOUDY    32  31  96 S5        30.29S
LAWRENCEVILLE* FAIR      35  29  80 CALM      30.24R
EMPORIA*       CLOUDY    30  28  93 CALM      30.27R
$$

VAZ088>098-210500-
SOUTHEAST VIRGINIA

CITY           SKY/WX    TMP DP  RH WIND       PRES   REMARKS
NORFOLK        CLOUDY    39  31  72 S5        30.25S
VIRGINIA BEACH CLOUDY    36  29  75 CALM      30.25
NORFOLK NAVAL  PTCLDY    40  32  73 S5        30.26
WEST POINT*    PTCLDY    36  30  81 CALM      30.25S
SALUDA*        FAIR      38  32  78 SW5       30.23S
NEWPORT NEWS   CLOUDY    35  32  88 CALM      30.25R
LANGLEY AFB    PTCLDY    38  35  86 SW3       30.24S
FORT EUSTIS    CLOUDY    44  31  61 S5        30.22S
WILLIAMSBURG*  CLOUDY    39  36  87 CALM      30.25S
HR EXEC AP*    NOT AVBL
FRANKLIN*      CLOUDY    32  30  91 CALM      30.27R
US460-WAKEFLD  CLOUDY    34  32  92 CALM      30.25S
$$

VAZ020-022-025-037-045-210500-
WEST CENTRAL AND SOUTHWEST VIRGINIA

CITY           SKY/WX    TMP DP  RH WIND       PRES   REMARKS
STAUNTON*      CLOUDY    30  22  72 CALM      30.18S
WAYNESBORO*    CLOUDY    32  22  66 CALM      30.16S
HOT SPRINGS VA CLOUDY    39  12  32 SW9       30.11S
LYNCHBURG      CLOUDY    32  24  72 CALM      30.20R
DANVILLE       CLOUDY    30  27  88 CALM      30.21F
SOUTH BOSTON*  FAIR      32  29  89 CALM      30.22S
MARTINSVILLE   CLOUDY    28  24  86 CALM      30.22F
ROANOKE        CLOUDY    33  26  75 CALM      30.21R
BLACKSBURG     CLOUDY    32  23  69 CALM      30.20S
DUBLIN*        CLOUDY    32  25  76 W3        30.18S
MARION*        CLOUDY    29  22  73 CALM      30.17S
HILLSVILLE*    CLOUDY    39  22  50 S7        30.15S
RICHLANDS*     FAIR      44  15  30 S5        30.11S
WISE*          CLOUDY    43  21  42 S8        30.11S
ABINGDON*      CLOUDY    34  24  65 CALM      30.13S
$$

MDZ021>025-VAZ099-100-210500-
SOUTHERN MARYLAND AND THE DELMARVA PENINSULA

CITY           SKY/WX    TMP DP  RH WIND       PRES   REMARKS
PATUXENT RIVER PTCLDY    45  30  55 SW8       30.21S
BAY BRIDGE APT CLEAR     46  30  53 S5        30.19S
LEONARDTOWN    PTCLDY    41  30  65 SW6       30.22S
DOVER          PTCLDY    40  34  80 S8        30.19S
GEORGETOWN     CLEAR     38  30  73 SW5       30.22S
EASTON         CLEAR     41  31  68 SW7       30.23S
CAMBRIDGE      CLEAR     37  30  75 CALM      30.21S
SALISBURY      CLOUDY    36  31  82 S3        30.22S
OCEAN CITY     CLEAR     42  33  70 W6        30.23S
WALLOPS ISLAND PTCLDY    43  31  62 SW7       30.24S
ACCOMACK*      CLEAR     38  32  79 SW6       30.24S
$$

NCZ012>017-030>032-210500-
NORTH CENTRAL AND EASTERN NORTH CAROLINA

CITY           SKY/WX    TMP DP  RH WIND       PRES   REMARKS
ROANOKE RAPIDS FAIR      34  32  93 SW3       30.26R
RALEIGH        CLOUDY    39  29  67 CALM      30.25S
ELIZABETH CITY CLOUDY    35  35 100 S6        30.27S
AHOSKIE*       CLOUDY    31  30  99 CALM      30.27R
EDENTON*       CLOUDY    39  36  87 CALM      30.28R
CURRITUCK*     CLOUDY    37  36  96 CALM      30.27F
KILL DEVIL HLS CLOUDY    46  32  59 CALM      30.26S
MANTEO         CLOUDY    37  34  89 CALM      30.28S
CAPE HATTERAS  CLEAR     38  36  92 NE3       30.28S
TARBORO*       NOT AVBL
GOLDSBORO      CLOUDY    36  31  82 CALM      30.25S
WASHINGTON     CLOUDY    37  34  90 CALM      30.28S
GREENVILLE       N/A     36  34  93 CALM      30.28S
NEW BERN       CLOUDY    35  34  96 CALM      30.29S
WILMINGTON     CLEAR     39  36  89 CALM      30.27S
$$

VAZ048-210500-
ELSEWHERE

CITY           SKY/WX    TMP DP  RH WIND       PRES   REMARKS
HARRISBURG PA  PTCLDY    43  24  47 SW8       30.12F
BALTIMORE      MOCLDY    35  24  64 CALM      30.17S
ANNAPOLIS      PTCLDY    45  27  49 CALM      30.18
ANDREWS AFB    CLOUDY    41  26  56 SW8       30.17S
PHILADELPHIA   CLEAR     41  27  57 S8        30.17S
HENDERSON NC   CLOUDY    35  26  71 S5        30.24S
GREENSBORO     CLOUDY    38  27  64 SW6       30.21S
ROCKY MOUNT    CLOUDY    34  33  96 CALM      30.26F
$$

VAZ100-210500-
MARINE

STATION/POSITION TIME  TEMP    WIND        PRES    WAVE   SWELL
                       AIR SEA DIR/SP/G            HT/PER HT/PER
                 (UTC) (F)     (DEG/KT/KT) (MB)    (FT/S) (FT/S)
BRANDYWINE LGT   0348          230/ 18/ 20   N/A
CAPE MAY NJ      0348   48 48  240/ 12/ 16 1022.4S
LEWES DE         0348   43 51  230/  5/  8 1022.8F
15NM E FENWICK I 0350   52 59  230/ 17/ 19 1023.5R   2/ 4
OCEAN-CITY-INLET 0348   45 54  240/  6/  7 1024.0R
WACHAPREAGUE VA  0348   44 51  230/  3/  5 1023.9S
THOMAS POINT MD  0400   49 51  200/ 13/ 14   N/A
GOOSES REEF MD   0350   49     210/ 14/ 16 1022.8R
COVE POINT MD    0348   47     220/ 13/ 16 1023.4S
SOLOMONS ISLAND  0348   46 54  210/  9/ 11 1022.6S
BISHOPS HEAD MD  0348   48 46  200/  9/ 11 1023.3F
PINEY POINT MD   0348          220/ 11/ 12   N/A
POTOMAC MD       0350   49     210/ 14/ 17 1022.5F
CAMBRIDGE MD     0348   43 49              1023.4S
LEWISETTA VA     0348   44 49  230/  7/  9 1023.2F
RAPPAHANNOCK LGT 0348          210/ 14/ 15 1024.2S
STINGRAY PT      0350   49     240/ 10/ 12 1023.9F
YORK RVR RNG VA  0348   49     220/ 11/ 12 1024.3S
YORKTOWN VA      0348   44 54  210/  6/  8 1023.7R
JAMESTOWN VA     0350          210/  6/  8   N/A
DOMINION TERM VA 0348   48     200/  8/  9 1024.4R
KIPTOPEKE VA     0348      53  210/ 10/ 12   N/A
CAPE HENRY VA    0348   45     190/  8/ 10   N/A
WILLOUBY STN VA  0348          200/ 10/ 10   N/A
S CRANEY ISL VA  0348   46     200/  5/  7 1024.1S
CAPE HENRY BUOY  0400      60                N/A     1/ 3
1ST LANDING BUOY 0350   49     210/ 10/ 12 1024.3F
CAPE CHARLES BUO 0351      58                N/A     2/ 2
64NM E OF VA BCH 0350   53 60  230/  6/ 10 1025.1R   2/ 6   2/ 6
DUCK PIER NC     0348   49 60  180/  6/  8 1024.2F
44100 DUCK FRF   0345      61                N/A     2/ 5
44056 DUCK FRF   0400      61                N/A     2/ 5
OREGON INLET NC  0348          170/  2/  3   N/A
HATTERAS NC      0348   50 58   50/  2/  2 1024.9F
DIAMOND SHLS NC  0400   58 75   20/  4/  8 1025.3
CAPE LOOKOUT NC  0400          330/  2/  3 1025.3R
$$



USA.gov is the U.S. government's official web portal to all federal, state and local government web resources and services.